Torna al catalogo

NIMBUS 2 DEB

AttivoLEO
NORAD 28205·DEBRIS·🇺🇸 United States

Lanciato May 15, 1966 da Vandenberg Space Force Base

Loading…

Prossimi Passaggi (prossime 24 ore)

TLE

AggiornatoSource: Space-Track

Epoca: Sep 14, 2026, 10:14 UTC

1 28205U 66040T   26257.42693231  .00001690  00000-0  24851-2 0  9993
2 28205 100.3336 139.3277 0054351  60.4139 116.5319 13.55379303104761

Traccia NIMBUS 2 DEB in tempo reale con AllMySat

Download on the App Store